KLM001 EHAM-EDXW

Flight info

Callsign KLM001
Flight time N/A
Altitude 19000
Route ANDIK M105 RIBSO RIBSO7A
Aircraft A20N/M-SDE2E3FGHIRWXY/LB1

Departure

Time N/A
Airport Amsterdam Airport Schiphol (EHAM)

Arrival

Time 2026-05-07 19:58
Airport Westerland Sylt Airport (EDXW)
Time Latitude Longitude Altitude Speed Heading
2026-05-07 19:42 53.85967 8.33268 11109 ft 304 kts 23°
2026-05-07 19:42 53.87908 8.34710 11110 ft 304 kts 24°
2026-05-07 19:43 53.89834 8.36198 11108 ft 304 kts 24°
2026-05-07 19:43 53.91854 8.37253 11114 ft 304 kts 12°
2026-05-07 19:43 53.93933 8.37937 11111 ft 305 kts
2026-05-07 19:43 53.96025 8.38539 11113 ft 304 kts
2026-05-07 19:44 53.98114 8.39110 11114 ft 304 kts
2026-05-07 19:44 54.00207 8.39667 11113 ft 305 kts
2026-05-07 19:44 54.02299 8.40217 11116 ft 304 kts
2026-05-07 19:44 54.04388 8.40763 11116 ft 304 kts
2026-05-07 19:45 54.06483 8.41308 11115 ft 305 kts
2026-05-07 19:45 54.08576 8.41853 11124 ft 304 kts
2026-05-07 19:45 54.10666 8.42396 11123 ft 304 kts
2026-05-07 19:45 54.12759 8.42938 11120 ft 304 kts
2026-05-07 19:46 54.14852 8.43480 11121 ft 304 kts
2026-05-07 19:46 54.16941 8.44023 11121 ft 304 kts
2026-05-07 19:46 54.19031 8.44567 11122 ft 304 kts
2026-05-07 19:46 54.21128 8.45114 11118 ft 304 kts
2026-05-07 19:47 54.23219 8.45660 11121 ft 304 kts
2026-05-07 19:47 54.25310 8.46208 11121 ft 304 kts
2026-05-07 19:47 54.27405 8.46758 11121 ft 305 kts
2026-05-07 19:47 54.29503 8.47309 11121 ft 304 kts
2026-05-07 19:48 54.30887 8.47673 11124 ft 304 kts
2026-05-07 19:48 54.32979 8.48224 11124 ft 304 kts
2026-05-07 19:48 54.35073 8.48776 11119 ft 304 kts
2026-05-07 19:48 54.37191 8.49332 10581 ft 311 kts
2026-05-07 19:49 54.39309 8.49887 10221 ft 302 kts
2026-05-07 19:49 54.41366 8.50424 9647 ft 297 kts
2026-05-07 19:49 54.43402 8.50946 9010 ft 295 kts
2026-05-07 19:49 54.45421 8.51453 8390 ft 292 kts
2026-05-07 19:50 54.47423 8.51945 7787 ft 289 kts
2026-05-07 19:50 54.49406 8.52421 7192 ft 287 kts
2026-05-07 19:50 54.51376 8.52883 6612 ft 285 kts
2026-05-07 19:50 54.53336 8.53329 6007 ft 283 kts
2026-05-07 19:51 54.55281 8.53760 5413 ft 281 kts
2026-05-07 19:51 54.57212 8.54178 4822 ft 279 kts
2026-05-07 19:51 54.59132 8.54590 4231 ft 277 kts
2026-05-07 19:51 54.61039 8.54999 3685 ft 278 kts
2026-05-07 19:52 54.62962 8.55336 3374 ft 276 kts 359°
2026-05-07 19:52 54.64756 8.54296 3246 ft 277 kts 323°
2026-05-07 19:52 54.65891 8.51663 3196 ft 277 kts 287°
2026-05-07 19:52 54.66010 8.48429 3179 ft 276 kts 262°
2026-05-07 19:53 54.66126 8.45148 3155 ft 277 kts 291°
2026-05-07 19:53 54.67256 8.42595 3157 ft 260 kts 328°
2026-05-07 19:53 54.68857 8.41568 3148 ft 235 kts 349°
2026-05-07 19:53 54.70393 8.41051 3140 ft 217 kts 352°
2026-05-07 19:54 54.71826 8.40640 3199 ft 191 kts 353°
2026-05-07 19:54 54.73096 8.40210 3150 ft 173 kts 349°
2026-05-07 19:54 54.74262 8.39749 3148 ft 173 kts 349°
2026-05-07 19:54 54.75432 8.39268 3145 ft 172 kts 348°
2026-05-07 19:55 54.76599 8.38827 3237 ft 169 kts 354°
2026-05-07 19:55 54.77789 8.38685 3431 ft 173 kts
2026-05-07 19:55 54.78993 8.38690 3586 ft 172 kts
2026-05-07 19:55 54.80192 8.38737 3735 ft 173 kts
2026-05-07 19:56 54.81403 8.38805 3902 ft 174 kts
2026-05-07 19:56 54.82614 8.38838 4010 ft 178 kts 358°
2026-05-07 19:56 54.83842 8.38459 3823 ft 179 kts 349°
2026-05-07 19:56 54.85060 8.38026 3214 ft 179 kts 353°
2026-05-07 19:57 54.86283 8.37707 2345 ft 175 kts 354°
2026-05-07 19:57 54.87460 8.37363 1533 ft 169 kts 349°
2026-05-07 19:57 54.88544 8.36751 689 ft 157 kts 341°
2026-05-07 19:57 54.89492 8.36066 174 ft 137 kts 334°
2026-05-07 19:58 54.90320 8.35239 70 ft 139 kts 329°
2026-05-07 19:58 54.91044 8.34382 43 ft 99 kts 324°
2026-05-07 19:58 54.91349 8.34007 41 ft 0 kts 326°
2026-05-07 19:58 54.91332 8.34027 41 ft 7 kts 326°
2026-05-07 19:59 54.91278 8.34091 42 ft 8 kts 325°